Regional Weather Roundup
Issued by NWS

Home | Current Version | Previous Version | Graphics & Text | Print | Product List | Glossary On
Versions: 1 2 3 4 5 6 7 8 9 10 11 12 13 14 15 16 17 18 19 20 21 22 23 24 25 26 27 28 29 30 31 32 33 34 35 36 37 38 39 40 41 42 43 44 45 46 47 48 49 50
000
ASUS45 KPSR 251010
RWRAZ

ARIZONA HOURLY REGIONAL WEATHER ROUNDUP
NATIONAL WEATHER SERVICE PHOENIX AZ
300 AM MST SUN SEP 25 2016

NOTE: FAIR INDICATES FEW OR NO CLOUDS BELOW 12,000 FEET WITH NO
SIGNIFICANT WEATHER AND/OR OBSTRUCTIONS TO VISIBILITY.

AZZ001>003-036-251100-
NORTHWEST ARIZONA

CITY           SKY/WX    TMP DP  RH WIND       PRES   REMARKS
BULLHEAD CITY  CLEAR     77  37  24 N16       30.06R
KINGMAN        CLEAR     58  32  37 E5        30.20S
$$

AZZ004>008-015-016-018-251100-
NORTH CENTRAL ARIZONA

CITY           SKY/WX    TMP DP  RH WIND       PRES   REMARKS
GRAND CANYON   CLEAR     49  34  56 E7        30.35F
PRESCOTT       CLEAR     48  38  68 CALM      30.24S
FLAGSTAFF      CLEAR     47  33  58 NE7       30.33S
PAYSON         CLEAR     61  30  31 NE23G30   30.22F
PAGE           CLEAR     61  36  39 N9        30.30S
$$

AZZ009>014-017-251100-
NORTHEAST ARIZONA

CITY           SKY/WX    TMP DP  RH WIND       PRES   REMARKS
WINSLOW        CLEAR     43  27  53 W3        30.28S
SAINT JOHNS    CLEAR     40  30  67 S3        30.28S
WINDOW ROCK    CLEAR     36  29  75 CALM      30.32F
SHOW LOW       CLEAR     37  23  56 N7        30.30S WCI  32
$$

AZZ023-251100-
GREATER PHOENIX AREA

CITY           SKY/WX    TMP DP  RH WIND       PRES   REMARKS
PHOENIX        CLEAR     78  33  19 N6        29.95F
BUCKEYE        CLEAR     79  32  18 N15       29.96F
LUKE AFB       CLEAR     76  35  22 NW5       29.95F
DEER VALLEY    CLEAR     77  32  19 N12       29.97F
SCOTTSDALE     CLEAR     77  32  19 N7        29.99S
MESA-GATEWAY   CLEAR     63  32  31 CALM      29.97F
$$

AZZ027-028-251100-
SOUTHWEST MARICOPA COUNTY AND PINAL COUNTY

CITY           SKY/WX    TMP DP  RH WIND       PRES   REMARKS
CASA GRANDE    CLEAR     63  27  25 NE3       29.98F
GILA BEND      FAIR      63  31  29 S6        29.93F
$$

AZZ503-504-507>509-251100-
SOUTHEAST ARIZONA

CITY           SKY/WX    TMP DP  RH WIND       PRES   REMARKS
TUCSON         CLEAR     59  29  31 SE6       30.04S
DAVIS-MONTHAN  CLEAR     56  31  38 SE7       30.03S
NOGALES        CLEAR     51  31  46 E7        30.08S
SIERRA VISTA   CLEAR     57  27  31 SW6       30.13S
DOUGLAS        PTCLDY    53  35  50 N7        30.08F
SAFFORD        LGT RAIN  55  30  38 CALM      30.04R
$$

AZZ020-021-025-026-031-251100-
SOUTHWEST ARIZONA

CITY           SKY/WX    TMP DP  RH WIND       PRES   REMARKS
YUMA           CLEAR     78  32  18 N9        29.92S
$$

CAZ031-033-041-043-047-048-061-251100-
SOUTHERN CALIFORNIA

CITY           SKY/WX    TMP DP  RH WIND       PRES   REMARKS
DOWNTOWN L.A.  CLEAR     65  51  60 CALM      29.97F
L.A. AIRPORT   CLEAR     66  51  58 NE6       29.98S
SAN DIEGO      CLEAR     68  46  45 VRB3        N/A
BURBANK        CLEAR     68  36  30 N5        29.99S
ONTARIO        CLEAR     66  34  30 N3        30.00S
RIVERSIDE      CLEAR     67  41  38 CALM      30.00S
PALM SPRINGS   CLEAR     75  40  28 N12       30.00R
EL CENTRO NAS  CLEAR     68  37  32 W5        29.95S
IMPERIAL       CLEAR     68  44  42 W7        29.93S
BLYTHE         CLEAR     75  32  20 N12       29.97S
NEEDLES        CLEAR     77  34  21 N14       30.05R
$$

NVZ020-UTZ003-251100-
SOUTHERN NEVADA-UTAH

CITY           SKY/WX    TMP DP  RH WIND       PRES   REMARKS
LAS VEGAS      CLEAR     72  33  24 NE14      30.19R
SALT LAKE CITY CLEAR     48  42  80 SE7       30.41S
$$

NMZ009-TXZ055-251100-
NEW MEXICO-WEST TEXAS

CITY           SKY/WX    TMP DP  RH WIND       PRES   REMARKS
ALBUQUERQUE    PTCLDY    53  34  48 N8        30.24R
EL PASO        PTCLDY    66  29  24 N8        30.05S
$$


........................KEY........................
SKY/WX - SKY CONDITION/WEATHER
TMP    - TEMPERATURE IN FAHRENHEIT
DP     - DEW POINT IN FAHRENHEIT
RH     - RELATIVE HUMIDITY IN PERCENT
WIND   - DIRECTION AND SPEED IN MILES PER HOUR (MPH)
VRB    - VARIABLE WIND DIRECTION
PRES   - MEAN SEA LEVEL PRESSURE IN INCHES OF MERCURY
         F - FALLING PRESSURE   R - RISING PRESSURE
         S - STEADY PRESSURE
VSB    - VISIBILITY IN MILES
HX     - HEAT INDEX IN FAHRENHEIT
WCI    - WIND CHILL INDEX IN FAHRENHEIT
TC     - TEMPERATURE IN CELSIUS WHICH IS ALSO KNOWN AS
         TEMPERATURE IN CENTIGRADE
AFB    - AIR FORCE BASE
         LUKE AFB IS LUKE AIR FORCE BASE
         DAVIS-MONTHAN IS DAVIS-MONTHAN AIR FORCE BASE
NAS    - NAVAL AIR STATION
         EL CENTRO NAS IS EL CENTRO NAVAL AIR STATION
N/A    - NOT AVAILABLE




USA.gov is the U.S. government's official web portal to all federal, state and local government web resources and services.